AirNav   Air Wisconsin Up To $57,000 Bonus
 
 1106 users online  

MU66 Winfield Manor Heliport
Winfield, Missouri, USA

GOING TO WINFIELD?


FAA INFORMATION EFFECTIVE 30 JANUARY 2020

Location

FAA Identifier: MU66
Lat/Long: 39-01-47.4300N 090-49-23.7500W
39-01.790500N 090-49.395833W
39.0298417,-90.8232639
(estimated)
Elevation: 732 ft. / 223 m (estimated)
Variation: 01E (2000)
From city: 3 miles SE of WINFIELD, MO
Time zone: UTC -6 (UTC -5 during Daylight Saving Time)
Zip code: 63389

Heliport Operations

Heliport use: Private use. Permission required prior to landing
Activation date: 10/1986
Control tower: no
ARTCC: KANSAS CITY CENTER
FSS: SAINT LOUIS FLIGHT SERVICE STATION
NOTAMs facility: FDC (NOTAM-D service not available)
Attendance: UNATNDD
Wind indicator: yes
Segmented circle: no
Lights: FOR FLOOD LGTS CALL 314-553-2225.
Beacon: white-green-yellow (heliport)
FOR ROTG BCN CALL 314-731-4517.

Heliport Communications

WX ASOS at SET (19 nm E): 118.075 (636-250-4590)

Nearby radio navigation aids

VOR radial/distance  VOR name  Freq  Var
STLr302/18.9ST LOUIS VORTAC117.4001E
FTZr014/21.3FORISTELL VORTAC110.8005E

 
NDB name  Hdg/Dist  Freq  Var  ID
CIVIC MEMORIAL284/36.726301WCVM -.-. ...- --

Heliport Services

Runway Information

Helipad H1

Dimensions: 50 x 50 ft. / 15 x 15 m
Surface: concrete
Runway edge lights: FLD
Latitude: 39-01.790500N
Longitude: 090-49.395833W
Elevation: 732.0 ft.
Traffic pattern: leftleft

Heliport Ownership and Management from official FAA records

Ownership: Privately-owned
Owner: EMERSON ELECTRIC CO.
8000 W. FLORISSANT
ST LOUIS, MO 63136
Phone (314) 553-2225
Manager: MOLLY LINDSAY
RR 1, BOX 128
WINFIELD, MO 63389
Phone (314) 553-3900

Additional Remarks

A52-H1 TREES 80' WEST AND WIRES 400' NORTH.
FOR CD CTC ST LOUIS APCH AT 314-890-1018.

Instrument Procedures

There are no published instrument procedures at MU66.

Some nearby airports with instrument procedures:

KSET - St Charles County Smartt Airport (19 nm E)
1H0 - Creve Coeur Airport (23 nm SE)
KSUS - Spirit of St Louis Airport (23 nm S)
KSTL - St Louis Lambert International Airport (27 nm SE)
H19 - Bowling Green Municipal Airport (27 nm NW)
 
Loc | Ops | Rwys | IFR | FBO | Links
Com | Nav | Svcs | Stats | Notes

Kansas City Aviation Department
 
Area around MU66 (Winfield Manor Heliport)
 
Road maps at: MapQuest Bing Google
 
Aerial photo
No photo
 
Sectional chart

 
Airport distance calculator
Flying to Winfield Manor Heliport? Find the distance to fly.

From to MU66

Sunrise and sunset
Times for 26-Feb-2020
 Local
(UTC-6)
 Zulu
(UTC)
Morning civil twilight06:1412:14
Sunrise06:4112:41
Sunset17:5123:51
Evening civil twilight18:1800:18

Current date and time
Zulu (UTC)  27-Feb-2020 04:08:56
Local (UTC-6)  26-Feb-2020 22:08:56
 
METAR
KSET 
19nm E 
270354Z AUTO 31010KT 10SM OVC040 01/M06 A3026 RMK AO2 SLP249 T00061061 $
KSUS 
24nm S 
270354Z 29006KT 10SM CLR M01/M07 A3026 RMK AO2 SLP256 T10061067
KSTL 
27nm SE 
270351Z 30010G18KT 10SM BKN043 01/M07 A3025 RMK AO2 SLP256 T00061072
KFYG 
28nm S 
270335Z AUTO 33003KT 10SM FEW060 00/M05 A3027 RMK AO2
KPPQ 
36nm N 
270355Z AUTO 31006KT 10SM CLR M01/M06 A3025 RMK AO2 T10121061
KALN 
38nm E 
270345Z 31011KT 10SM OVC044 00/M06 A3025
TAF
KSUS 
24nm S 
261720Z 2618/2718 33012G20KT P6SM OVC025 FM262000 32013G19KT P6SM BKN025 FM262100 32013KT P6SM BKN035 FM270000 32009KT P6SM BKN060 FM270800 29006KT P6SM SKC
KSTL 
27nm SE 
262135Z 2622/2724 32014G20KT P6SM VCSH BKN040 FM270000 32010KT P6SM BKN060 FM271000 29006KT P6SM SKC
NOTAMs
Click for the latest NOTAMs
NOTAMs are issued by the DoD/FAA and will open in a separate window not controlled by AirNav.

 

 
 

Would you like to see your business listed on this page?

 If your business provides an interesting product or service to pilots, flight crews, aircraft, or users of the Winfield Manor Heliport, you should consider listing it here.  To start the listing process, click on the button below
 
Add a business
 

Other Pages about Winfield Manor Heliport

Update a link
 
Copyright © AirNav, LLC. All rights reserved. Privacy Policy  Contact